contact:dominique.lefevre@mio.osupytheas.fr, maurice.libes@osupytheas.fr, didier.mallarino@osupytheas.fr
Project:EMSO http://www.emso-fr.org/EMSO-France
Depth: 2436.0 m
Title:EMSO Ligure Ouest : Data MII capteur CSTAR
DateTime,Latitude,Longitude,Instrument_Serial,Reference_Counts,Signal_Counts,Corrected_Signal_raw_counts,Calculated_Beam_c_inverse_meters,Internal_thermistor_counts
DateTime,Latitude,Longitude,Instrument_Serial,Reference_Counts,Signal_Counts,Corrected_Signal_raw_counts,Calculated_Beam_c_inverse_meters,Internal_thermistor_counts
2019-12-31T00:00:27,42.805,6.029,CST-1368DR,7055,9888,15272,0.089,551
2019-12-31T00:03:29,42.805,6.029,CST-1368DR,7055,9890,15276,0.088,550
2019-12-31T00:06:30,42.805,6.029,CST-1368DR,7055,9887,15271,0.089,550
2019-12-31T00:09:32,42.805,6.029,CST-1368DR,7055,9889,15273,0.089,551
2019-12-31T00:12:34,42.805,6.029,CST-1368DR,7055,9890,15275,0.088,551
2019-12-31T00:15:35,42.805,6.029,CST-1368DR,7055,9889,15274,0.089,551
2019-12-31T00:18:37,42.805,6.029,CST-1368DR,7055,9889,15273,0.089,551
2019-12-31T00:21:39,42.805,6.029,CST-1368DR,7055,9889,15273,0.089,551
2019-12-31T00:24:40,42.805,6.029,CST-1368DR,7055,9889,15273,0.089,551
2019-12-31T00:27:42,42.805,6.029,CST-1368DR,7055,9883,15265,0.091,551
2019-12-31T00:30:44,42.805,6.029,CST-1368DR,7055,9889,15274,0.089,551
2019-12-31T00:33:46,42.805,6.029,CST-1368DR,7055,9889,15274,0.089,551
2019-12-31T00:36:47,42.805,6.029,CST-1368DR,7055,9890,15275,0.088,551
2019-12-31T00:39:49,42.805,6.029,CST-1368DR,7055,9889,15274,0.089,551
2019-12-31T00:42:50,42.805,6.029,CST-1368DR,7055,9886,15269,0.090,551
2019-12-31T00:45:52,42.805,6.029,CST-1368DR,7055,9889,15274,0.089,551
2019-12-31T00:48:54,42.805,6.029,CST-1368DR,7055,9890,15274,0.089,551
2019-12-31T00:51:55,42.805,6.029,CST-1368DR,7055,9889,15273,0.089,551
2019-12-31T00:54:57,42.805,6.029,CST-1368DR,7055,9889,15273,0.089,551
2019-12-31T00:57:59,42.805,6.029,CST-1368DR,7055,9889,15273,0.089,551
2019-12-31T01:01:00,42.805,6.029,CST-1368DR,7055,9888,15271,0.089,551
2019-12-31T01:04:02,42.805,6.029,CST-1368DR,7055,9890,15275,0.088,551
2019-12-31T01:07:04,42.805,6.029,CST-1368DR,7054,9888,15273,0.089,551
2019-12-31T01:10:05,42.805,6.029,CST-1368DR,7054,9889,15275,0.088,550
2019-12-31T01:13:07,42.805,6.029,CST-1368DR,7055,9889,15273,0.089,550
2019-12-31T01:16:09,42.805,6.029,CST-1368DR,7054,9888,15274,0.089,550
2019-12-31T01:19:10,42.805,6.029,CST-1368DR,7054,9889,15276,0.088,551
2019-12-31T01:22:12,42.805,6.029,CST-1368DR,7055,9886,15269,0.090,551
2019-12-31T01:25:13,42.805,6.029,CST-1368DR,7054,9889,15276,0.088,551
2019-12-31T01:28:15,42.805,6.029,CST-1368DR,7055,9889,15273,0.089,551
2019-12-31T01:31:17,42.805,6.029,CST-1368DR,7054,9886,15270,0.090,551
2019-12-31T01:34:19,42.805,6.029,CST-1368DR,7054,9889,15276,0.088,551
2019-12-31T01:37:20,42.805,6.029,CST-1368DR,7054,9887,15273,0.089,551
2019-12-31T01:40:22,42.805,6.029,CST-1368DR,7054,9888,15273,0.089,551
2019-12-31T01:43:24,42.805,6.029,CST-1368DR,7054,9889,15276,0.088,551
2019-12-31T01:46:25,42.805,6.029,CST-1368DR,7054,9886,15271,0.089,551
2019-12-31T01:49:27,42.805,6.029,CST-1368DR,7054,9889,15276,0.088,551
2019-12-31T01:52:29,42.805,6.029,CST-1368DR,7054,9889,15275,0.088,551
2019-12-31T01:55:30,42.805,6.029,CST-1368DR,7054,9886,15271,0.089,551
2019-12-31T01:58:32,42.805,6.029,CST-1368DR,7054,9889,15275,0.088,551
2019-12-31T02:01:34,42.805,6.029,CST-1368DR,7054,9888,15273,0.089,551
2019-12-31T02:04:35,42.805,6.029,CST-1368DR,7054,9889,15276,0.088,551
2019-12-31T02:07:37,42.805,6.029,CST-1368DR,7054,9889,15276,0.088,551
2019-12-31T02:10:39,42.805,6.029,CST-1368DR,7054,9887,15272,0.089,551
2019-12-31T02:13:40,42.805,6.029,CST-1368DR,7054,9887,15273,0.089,550
2019-12-31T02:16:42,42.805,6.029,CST-1368DR,7054,9886,15271,0.089,551
2019-12-31T02:19:43,42.805,6.029,CST-1368DR,7054,9887,15272,0.089,551
2019-12-31T02:22:45,42.805,6.029,CST-1368DR,7054,9886,15271,0.089,551
2019-12-31T02:25:47,42.805,6.029,CST-1368DR,7054,9888,15274,0.089,551
2019-12-31T02:28:48,42.805,6.029,CST-1368DR,7054,9888,15273,0.089,551
2019-12-31T02:31:50,42.805,6.029,CST-1368DR,7054,9885,15270,0.090,551
2019-12-31T02:34:52,42.805,6.029,CST-1368DR,7054,9888,15274,0.089,551
2019-12-31T02:37:53,42.805,6.029,CST-1368DR,7054,9888,15274,0.089,550
2019-12-31T02:40:55,42.805,6.029,CST-1368DR,7054,9889,15275,0.088,550
2019-12-31T02:43:57,42.805,6.029,CST-1368DR,7054,9888,15273,0.089,550
2019-12-31T02:46:58,42.805,6.029,CST-1368DR,7054,9889,15276,0.088,551
2019-12-31T02:50:00,42.805,6.029,CST-1368DR,7054,9889,15275,0.088,551
2019-12-31T02:53:02,42.805,6.029,CST-1368DR,7054,9888,15274,0.089,551
2019-12-31T02:56:03,42.805,6.029,CST-1368DR,7054,9889,15275,0.088,551
2019-12-31T02:59:05,42.805,6.029,CST-1368DR,7054,9887,15273,0.089,551
2019-12-31T03:02:07,42.805,6.029,CST-1368DR,7054,9888,15274,0.089,551
2019-12-31T03:05:08,42.805,6.029,CST-1368DR,7054,9887,15273,0.089,551
2019-12-31T03:08:10,42.805,6.029,CST-1368DR,7054,9888,15273,0.089,551
2019-12-31T03:11:12,42.805,6.029,CST-1368DR,7054,9888,15274,0.089,551
2019-12-31T03:14:13,42.805,6.029,CST-1368DR,7054,9885,15269,0.090,551
2019-12-31T03:17:15,42.805,6.029,CST-1368DR,7054,9888,15273,0.089,551
2019-12-31T03:20:16,42.805,6.029,CST-1368DR,7054,9887,15273,0.089,551
2019-12-31T03:23:18,42.805,6.029,CST-1368DR,7054,9887,15273,0.089,551
2019-12-31T03:26:20,42.805,6.029,CST-1368DR,7054,9888,15274,0.089,551
2019-12-31T03:29:22,42.805,6.029,CST-1368DR,7054,9889,15275,0.088,551
2019-12-31T03:32:23,42.805,6.029,CST-1368DR,7054,9887,15273,0.089,551
2019-12-31T03:35:25,42.805,6.029,CST-1368DR,7054,9886,15270,0.090,551
2019-12-31T03:38:27,42.805,6.029,CST-1368DR,7054,9887,15272,0.089,551
2019-12-31T03:41:28,42.805,6.029,CST-1368DR,7054,9888,15273,0.089,550
2019-12-31T03:44:30,42.805,6.029,CST-1368DR,7054,9888,15274,0.089,551
2019-12-31T03:47:31,42.805,6.029,CST-1368DR,7054,9887,15273,0.089,551
2019-12-31T03:50:33,42.805,6.029,CST-1368DR,7054,9888,15274,0.089,551
2019-12-31T03:53:35,42.805,6.029,CST-1368DR,7054,9887,15273,0.089,551
2019-12-31T03:56:36,42.805,6.029,CST-1368DR,7054,9889,15275,0.088,550
2019-12-31T03:59:38,42.805,6.029,CST-1368DR,7054,9889,15275,0.088,551
2019-12-31T04:02:40,42.805,6.029,CST-1368DR,7054,9888,15274,0.089,551
2019-12-31T04:05:41,42.805,6.029,CST-1368DR,7054,9885,15269,0.090,551
2019-12-31T04:08:43,42.805,6.029,CST-1368DR,7054,9886,15271,0.089,551
2019-12-31T04:11:45,42.805,6.029,CST-1368DR,7054,9888,15274,0.089,551
2019-12-31T04:14:46,42.805,6.029,CST-1368DR,7054,9888,15274,0.089,550
2019-12-31T04:17:48,42.805,6.029,CST-1368DR,7054,9887,15272,0.089,551
2019-12-31T04:20:50,42.805,6.029,CST-1368DR,7054,9887,15273,0.089,551
2019-12-31T04:23:51,42.805,6.029,CST-1368DR,7054,9886,15271,0.089,551
2019-12-31T04:26:53,42.805,6.029,CST-1368DR,7054,9887,15273,0.089,551
2019-12-31T04:29:55,42.805,6.029,CST-1368DR,7054,9887,15273,0.089,551
2019-12-31T04:32:56,42.805,6.029,CST-1368DR,7054,9887,15272,0.089,551
2019-12-31T04:35:58,42.805,6.029,CST-1368DR,7054,9886,15270,0.090,551
2019-12-31T04:39:00,42.805,6.029,CST-1368DR,7054,9887,15273,0.089,551
2019-12-31T04:42:01,42.805,6.029,CST-1368DR,7054,9887,15272,0.089,551
2019-12-31T04:45:03,42.805,6.029,CST-1368DR,7054,9887,15272,0.089,551
2019-12-31T04:48:05,42.805,6.029,CST-1368DR,7054,9888,15273,0.089,551
2019-12-31T04:51:06,42.805,6.029,CST-1368DR,7054,9888,15274,0.089,551
2019-12-31T04:54:08,42.805,6.029,CST-1368DR,7054,9887,15273,0.089,551
2019-12-31T04:57:10,42.805,6.029,CST-1368DR,7053,9888,15275,0.088,550
2019-12-31T05:00:11,42.805,6.029,CST-1368DR,7054,9886,15271,0.089,550
2019-12-31T05:03:13,42.805,6.029,CST-1368DR,7053,9887,15275,0.088,551
2019-12-31T05:06:14,42.805,6.029,CST-1368DR,7053,9884,15270,0.090,551
2019-12-31T05:09:16,42.805,6.029,CST-1368DR,7053,9885,15272,0.089,551
2019-12-31T05:12:18,42.805,6.029,CST-1368DR,7053,9886,15273,0.089,551
2019-12-31T05:15:19,42.805,6.029,CST-1368DR,7053,9886,15272,0.089,551
2019-12-31T05:18:21,42.805,6.029,CST-1368DR,7053,9886,15273,0.089,551
2019-12-31T05:21:23,42.805,6.029,CST-1368DR,7053,9886,15273,0.089,551
2019-12-31T05:24:25,42.805,6.029,CST-1368DR,7053,9887,15274,0.089,551
2019-12-31T05:27:26,42.805,6.029,CST-1368DR,7053,9884,15270,0.090,550
2019-12-31T05:30:28,42.805,6.029,CST-1368DR,7053,9885,15271,0.089,551
2019-12-31T05:33:30,42.805,6.029,CST-1368DR,7053,9884,15270,0.090,551
2019-12-31T05:36:31,42.805,6.029,CST-1368DR,7053,9886,15273,0.089,551
2019-12-31T05:39:33,42.805,6.029,CST-1368DR,7053,9885,15271,0.089,551
2019-12-31T05:42:34,42.805,6.029,CST-1368DR,7053,9885,15271,0.089,551
2019-12-31T05:45:36,42.805,6.029,CST-1368DR,7053,9886,15273,0.089,551
2019-12-31T05:48:38,42.805,6.029,CST-1368DR,7053,9886,15272,0.089,551
2019-12-31T05:51:39,42.805,6.029,CST-1368DR,7053,9886,15273,0.089,551
2019-12-31T05:54:41,42.805,6.029,CST-1368DR,7053,9886,15272,0.089,551
2019-12-31T05:57:43,42.805,6.029,CST-1368DR,7053,9886,15273,0.089,551
2019-12-31T06:00:44,42.805,6.029,CST-1368DR,7053,9887,15274,0.089,551
2019-12-31T06:03:46,42.805,6.029,CST-1368DR,7053,9886,15273,0.089,551
2019-12-31T06:06:47,42.805,6.029,CST-1368DR,7053,9884,15270,0.090,551
2019-12-31T06:09:49,42.805,6.029,CST-1368DR,7053,9884,15270,0.090,551
2019-12-31T06:12:51,42.805,6.029,CST-1368DR,7053,9886,15273,0.089,551
2019-12-31T06:15:52,42.805,6.029,CST-1368DR,7053,9886,15273,0.089,551
2019-12-31T06:18:54,42.805,6.029,CST-1368DR,7053,9885,15271,0.089,551
2019-12-31T06:21:56,42.805,6.029,CST-1368DR,7053,9886,15273,0.089,551
2019-12-31T06:24:57,42.805,6.029,CST-1368DR,7053,9883,15269,0.090,551
2019-12-31T06:27:59,42.805,6.029,CST-1368DR,7053,9886,15272,0.089,551
2019-12-31T06:31:01,42.805,6.029,CST-1368DR,7053,9886,15273,0.089,551
2019-12-31T06:34:02,42.805,6.029,CST-1368DR,7053,9883,15268,0.090,550
2019-12-31T06:37:04,42.805,6.029,CST-1368DR,7053,9884,15269,0.090,551
2019-12-31T06:40:06,42.805,6.029,CST-1368DR,7053,9886,15272,0.089,551
2019-12-31T06:43:07,42.805,6.029,CST-1368DR,7053,9884,15269,0.090,551
2019-12-31T06:46:09,42.805,6.029,CST-1368DR,7053,9886,15272,0.089,551
2019-12-31T06:49:10,42.805,6.029,CST-1368DR,7053,9880,15264,0.091,551
2019-12-31T06:52:12,42.805,6.029,CST-1368DR,7053,9886,15273,0.089,551
2019-12-31T06:55:14,42.805,6.029,CST-1368DR,7053,9886,15272,0.089,550
2019-12-31T06:58:15,42.805,6.029,CST-1368DR,7053,9886,15272,0.089,551
2019-12-31T07:01:17,42.805,6.029,CST-1368DR,7053,9886,15273,0.089,551
2019-12-31T07:04:19,42.805,6.029,CST-1368DR,7053,9885,15271,0.089,551
2019-12-31T07:07:20,42.805,6.029,CST-1368DR,7053,9885,15272,0.089,551
2019-12-31T07:10:22,42.805,6.029,CST-1368DR,7053,9885,15271,0.089,551
2019-12-31T07:13:24,42.805,6.029,CST-1368DR,7053,9884,15270,0.090,550
2019-12-31T07:16:25,42.805,6.029,CST-1368DR,7053,9885,15272,0.089,551
2019-12-31T07:19:27,42.805,6.029,CST-1368DR,7053,9885,15271,0.089,551
2019-12-31T07:22:29,42.805,6.029,CST-1368DR,7053,9883,15269,0.090,551
2019-12-31T07:25:30,42.805,6.029,CST-1368DR,7053,9883,15268,0.090,551
2019-12-31T07:28:32,42.805,6.029,CST-1368DR,7053,9886,15273,0.089,551
2019-12-31T07:31:33,42.805,6.029,CST-1368DR,7053,9884,15270,0.090,551
2019-12-31T07:34:35,42.805,6.029,CST-1368DR,7053,9884,15270,0.090,551
2019-12-31T07:37:37,42.805,6.029,CST-1368DR,7053,9884,15269,0.090,551
2019-12-31T07:40:38,42.805,6.029,CST-1368DR,7053,9884,15270,0.090,551
2019-12-31T07:43:40,42.805,6.029,CST-1368DR,7053,9886,15272,0.089,551
2019-12-31T07:46:42,42.805,6.029,CST-1368DR,7053,9886,15273,0.089,551
2019-12-31T07:49:43,42.805,6.029,CST-1368DR,7053,9886,15273,0.089,551
2019-12-31T07:52:45,42.805,6.029,CST-1368DR,7053,9886,15272,0.089,551
2019-12-31T07:55:47,42.805,6.029,CST-1368DR,7053,9886,15272,0.089,551
2019-12-31T07:58:48,42.805,6.029,CST-1368DR,7053,9885,15271,0.089,551
2019-12-31T08:01:50,42.805,6.029,CST-1368DR,7053,9885,15272,0.089,551
2019-12-31T08:04:52,42.805,6.029,CST-1368DR,7053,9885,15271,0.089,551
2019-12-31T08:07:53,42.805,6.029,CST-1368DR,7053,9885,15271,0.089,551
2019-12-31T08:10:55,42.805,6.029,CST-1368DR,7053,9883,15268,0.090,551
2019-12-31T08:13:56,42.805,6.029,CST-1368DR,7053,9884,15270,0.090,551
2019-12-31T08:16:58,42.805,6.029,CST-1368DR,7053,9885,15272,0.089,551
2019-12-31T08:20:00,42.805,6.029,CST-1368DR,7053,9884,15270,0.090,550
2019-12-31T08:23:02,42.805,6.029,CST-1368DR,7053,9884,15270,0.090,551
2019-12-31T08:26:03,42.805,6.029,CST-1368DR,7053,9886,15273,0.089,551
2019-12-31T08:29:05,42.805,6.029,CST-1368DR,7053,9884,15270,0.090,551
2019-12-31T08:32:07,42.805,6.029,CST-1368DR,7053,9885,15271,0.089,551
2019-12-31T08:35:08,42.805,6.029,CST-1368DR,7053,9884,15270,0.090,551
2019-12-31T08:38:10,42.805,6.029,CST-1368DR,7053,9885,15271,0.089,551
2019-12-31T08:41:12,42.805,6.029,CST-1368DR,7053,9883,15269,0.090,551
2019-12-31T08:44:13,42.805,6.029,CST-1368DR,7053,9885,15272,0.089,551
2019-12-31T08:47:15,42.805,6.029,CST-1368DR,7052,9884,15271,0.089,551
2019-12-31T08:50:17,42.805,6.029,CST-1368DR,7053,9884,15270,0.090,551
2019-12-31T08:53:19,42.805,6.029,CST-1368DR,7053,9884,15270,0.090,551
2019-12-31T08:56:20,42.805,6.029,CST-1368DR,7052,9885,15274,0.089,551
2019-12-31T08:59:22,42.805,6.029,CST-1368DR,7052,9885,15273,0.089,551
2019-12-31T09:02:24,42.805,6.029,CST-1368DR,7052,9885,15274,0.089,551
2019-12-31T09:05:25,42.805,6.029,CST-1368DR,7052,9885,15273,0.089,550
2019-12-31T09:08:27,42.805,6.029,CST-1368DR,7052,9885,15274,0.089,551
2019-12-31T09:11:29,42.805,6.029,CST-1368DR,7052,9885,15273,0.089,551
2019-12-31T09:14:30,42.805,6.029,CST-1368DR,7052,9885,15273,0.089,551
2019-12-31T09:17:32,42.805,6.029,CST-1368DR,7052,9883,15270,0.090,550
2019-12-31T09:20:33,42.805,6.029,CST-1368DR,7052,9885,15273,0.089,551
2019-12-31T09:23:35,42.805,6.029,CST-1368DR,7052,9885,15273,0.089,551
2019-12-31T09:26:37,42.805,6.029,CST-1368DR,7052,9884,15272,0.089,551
2019-12-31T09:29:38,42.805,6.029,CST-1368DR,7052,9884,15272,0.089,551
2019-12-31T09:32:40,42.805,6.029,CST-1368DR,7052,9885,15273,0.089,551
2019-12-31T09:35:42,42.805,6.029,CST-1368DR,7052,9884,15272,0.089,551
2019-12-31T09:38:43,42.805,6.029,CST-1368DR,7052,9885,15273,0.089,551
2019-12-31T09:41:45,42.805,6.029,CST-1368DR,7052,9885,15274,0.089,551
2019-12-31T09:44:47,42.805,6.029,CST-1368DR,7052,9884,15272,0.089,551
2019-12-31T09:47:48,42.805,6.029,CST-1368DR,7052,9885,15273,0.089,551
2019-12-31T09:50:50,42.805,6.029,CST-1368DR,7052,9884,15272,0.089,551
2019-12-31T09:53:52,42.805,6.029,CST-1368DR,7052,9885,15273,0.089,551
2019-12-31T09:56:53,42.805,6.029,CST-1368DR,7052,9884,15272,0.089,551
2019-12-31T09:59:55,42.805,6.029,CST-1368DR,7052,9884,15272,0.089,551
2019-12-31T10:02:57,42.805,6.029,CST-1368DR,7052,9884,15272,0.089,551
2019-12-31T10:05:58,42.805,6.029,CST-1368DR,7052,9883,15270,0.090,551
2019-12-31T10:09:00,42.805,6.029,CST-1368DR,7052,9885,15273,0.089,551
2019-12-31T10:12:02,42.805,6.029,CST-1368DR,7052,9884,15272,0.089,551
2019-12-31T10:15:04,42.805,6.029,CST-1368DR,7052,9885,15273,0.089,551
2019-12-31T10:18:05,42.805,6.029,CST-1368DR,7052,9884,15272,0.089,551
2019-12-31T10:21:07,42.805,6.029,CST-1368DR,7052,9883,15271,0.089,551
2019-12-31T10:24:08,42.805,6.029,CST-1368DR,7052,9883,15270,0.090,551
2019-12-31T10:27:10,42.805,6.029,CST-1368DR,7052,9884,15272,0.089,551
2019-12-31T10:30:12,42.805,6.029,CST-1368DR,7052,9883,15270,0.090,551
2019-12-31T10:33:13,42.805,6.029,CST-1368DR,7052,9883,15270,0.090,551
2019-12-31T10:36:15,42.805,6.029,CST-1368DR,7052,9882,15269,0.090,551
2019-12-31T10:39:17,42.805,6.029,CST-1368DR,7052,9883,15270,0.090,551
2019-12-31T10:42:18,42.805,6.029,CST-1368DR,7052,9883,15271,0.089,551
2019-12-31T10:45:20,42.805,6.029,CST-1368DR,7052,9883,15270,0.090,551
2019-12-31T10:48:22,42.805,6.029,CST-1368DR,7052,9883,15270,0.090,551
2019-12-31T10:51:23,42.805,6.029,CST-1368DR,7052,9883,15270,0.090,551
2019-12-31T10:54:25,42.805,6.029,CST-1368DR,7052,9880,15266,0.091,551
2019-12-31T10:57:26,42.805,6.029,CST-1368DR,7052,9880,15266,0.091,551
2019-12-31T11:00:28,42.805,6.029,CST-1368DR,7052,9884,15272,0.089,551
2019-12-31T11:03:30,42.805,6.029,CST-1368DR,7052,9883,15270,0.090,551
2019-12-31T11:06:31,42.805,6.029,CST-1368DR,7052,9883,15270,0.090,551
2019-12-31T11:09:33,42.805,6.029,CST-1368DR,7052,9883,15270,0.090,551
2019-12-31T11:12:35,42.805,6.029,CST-1368DR,7052,9881,15267,0.090,551
2019-12-31T11:15:36,42.805,6.029,CST-1368DR,7052,9883,15270,0.090,551
2019-12-31T11:18:38,42.805,6.029,CST-1368DR,7052,9881,15267,0.090,551
2019-12-31T11:21:40,42.805,6.029,CST-1368DR,7052,9883,15270,0.090,551
2019-12-31T11:24:41,42.805,6.029,CST-1368DR,7052,9883,15270,0.090,551
2019-12-31T11:27:43,42.805,6.029,CST-1368DR,7052,9881,15267,0.090,551
2019-12-31T11:30:45,42.805,6.029,CST-1368DR,7052,9882,15269,0.090,551
2019-12-31T11:33:46,42.805,6.029,CST-1368DR,7052,9882,15268,0.090,551
2019-12-31T11:36:48,42.805,6.029,CST-1368DR,7052,9882,15268,0.090,551
2019-12-31T11:39:50,42.805,6.029,CST-1368DR,7052,9882,15269,0.090,551
2019-12-31T11:42:51,42.805,6.029,CST-1368DR,7052,9882,15268,0.090,551
2019-12-31T11:45:53,42.805,6.029,CST-1368DR,7052,9882,15268,0.090,551
2019-12-31T11:48:55,42.805,6.029,CST-1368DR,7052,9881,15267,0.090,551
2019-12-31T11:51:56,42.805,6.029,CST-1368DR,7052,9881,15267,0.090,551
2019-12-31T11:54:58,42.805,6.029,CST-1368DR,7052,9882,15269,0.090,551
2019-12-31T11:58:00,42.805,6.029,CST-1368DR,7052,9882,15268,0.090,551
2019-12-31T12:01:01,42.805,6.029,CST-1368DR,7052,9882,15269,0.090,551
2019-12-31T12:04:03,42.805,6.029,CST-1368DR,7052,9880,15266,0.091,550
2019-12-31T12:07:05,42.805,6.029,CST-1368DR,7052,9881,15267,0.090,551
2019-12-31T12:10:06,42.805,6.029,CST-1368DR,7051,9878,15265,0.091,551
2019-12-31T12:13:08,42.805,6.029,CST-1368DR,7051,9878,15265,0.091,551
2019-12-31T12:16:10,42.805,6.029,CST-1368DR,7051,9873,15257,0.093,551
2019-12-31T12:19:11,42.805,6.029,CST-1368DR,7051,9877,15262,0.092,551
2019-12-31T12:22:13,42.805,6.029,CST-1368DR,7051,9877,15263,0.091,551
2019-12-31T12:25:14,42.805,6.029,CST-1368DR,7051,9879,15267,0.090,551
2019-12-31T12:28:16,42.805,6.029,CST-1368DR,7051,9876,15261,0.092,551
2019-12-31T12:31:18,42.805,6.029,CST-1368DR,7051,9879,15267,0.090,551
2019-12-31T12:34:20,42.805,6.029,CST-1368DR,7051,9879,15266,0.091,551
2019-12-31T12:37:22,42.805,6.029,CST-1368DR,7051,9880,15267,0.090,551
2019-12-31T12:40:24,42.805,6.029,CST-1368DR,7051,9879,15265,0.091,550
2019-12-31T12:43:25,42.805,6.029,CST-1368DR,7051,9879,15267,0.090,551
2019-12-31T12:46:27,42.805,6.029,CST-1368DR,7051,9879,15266,0.091,551
2019-12-31T12:49:29,42.805,6.029,CST-1368DR,7051,9880,15267,0.090,550
2019-12-31T12:52:30,42.805,6.029,CST-1368DR,7051,9879,15266,0.091,551
2019-12-31T12:55:32,42.805,6.029,CST-1368DR,7051,9879,15267,0.090,551
2019-12-31T12:58:34,42.805,6.029,CST-1368DR,7051,9880,15268,0.090,551
2019-12-31T13:01:35,42.805,6.029,CST-1368DR,7051,9879,15266,0.091,551
2019-12-31T13:04:37,42.805,6.029,CST-1368DR,7051,9879,15267,0.090,551
2019-12-31T13:07:39,42.805,6.029,CST-1368DR,7051,9881,15269,0.090,551
2019-12-31T13:10:40,42.805,6.029,CST-1368DR,7051,9879,15267,0.090,551
2019-12-31T13:13:42,42.805,6.029,CST-1368DR,7051,9877,15263,0.091,551
2019-12-31T13:16:43,42.805,6.029,CST-1368DR,7051,9880,15267,0.090,551
2019-12-31T13:19:45,42.805,6.029,CST-1368DR,7051,9880,15267,0.090,551
2019-12-31T13:22:47,42.805,6.029,CST-1368DR,7051,9879,15266,0.091,551
2019-12-31T13:25:48,42.805,6.029,CST-1368DR,7051,9879,15266,0.091,551
2019-12-31T13:28:50,42.805,6.029,CST-1368DR,7051,9880,15267,0.090,551
2019-12-31T13:31:52,42.805,6.029,CST-1368DR,7051,9879,15266,0.091,551
2019-12-31T13:34:53,42.805,6.029,CST-1368DR,7051,9878,15264,0.091,551
2019-12-31T13:37:55,42.805,6.029,CST-1368DR,7051,9877,15263,0.091,551
2019-12-31T13:40:57,42.805,6.029,CST-1368DR,7051,9872,15255,0.094,550
2019-12-31T13:43:58,42.805,6.029,CST-1368DR,7051,9878,15264,0.091,551
2019-12-31T13:47:00,42.805,6.029,CST-1368DR,7051,9876,15261,0.092,551
2019-12-31T13:50:01,42.805,6.029,CST-1368DR,7051,9877,15264,0.091,551
2019-12-31T13:53:03,42.805,6.029,CST-1368DR,7051,9877,15264,0.091,551
2019-12-31T13:56:05,42.805,6.029,CST-1368DR,7051,9874,15259,0.093,550
2019-12-31T13:59:06,42.805,6.029,CST-1368DR,7051,9874,15258,0.093,551
2019-12-31T14:02:08,42.805,6.029,CST-1368DR,7051,9876,15261,0.092,551
2019-12-31T14:05:10,42.805,6.029,CST-1368DR,7051,9878,15264,0.091,551
2019-12-31T14:08:11,42.805,6.029,CST-1368DR,7051,9876,15261,0.092,551
2019-12-31T14:11:13,42.805,6.029,CST-1368DR,7051,9878,15264,0.091,551
2019-12-31T14:14:15,42.805,6.029,CST-1368DR,7051,9877,15263,0.091,551
2019-12-31T14:17:16,42.805,6.029,CST-1368DR,7051,9876,15262,0.092,551
2019-12-31T14:20:18,42.805,6.029,CST-1368DR,7051,9877,15263,0.091,551
2019-12-31T14:23:20,42.805,6.029,CST-1368DR,7051,9876,15261,0.092,550
2019-12-31T14:26:21,42.805,6.029,CST-1368DR,7051,9876,15262,0.092,551
2019-12-31T14:29:23,42.805,6.029,CST-1368DR,7051,9878,15264,0.091,551
2019-12-31T14:32:24,42.805,6.029,CST-1368DR,7051,9877,15262,0.092,551
2019-12-31T14:35:26,42.805,6.029,CST-1368DR,7051,9876,15261,0.092,551
2019-12-31T14:38:28,42.805,6.029,CST-1368DR,7051,9877,15263,0.091,551
2019-12-31T14:41:29,42.805,6.029,CST-1368DR,7051,9877,15263,0.091,551
2019-12-31T14:44:31,42.805,6.029,CST-1368DR,7051,9874,15258,0.093,551
2019-12-31T14:47:33,42.805,6.029,CST-1368DR,7051,9878,15264,0.091,551
2019-12-31T14:50:35,42.805,6.029,CST-1368DR,7051,9877,15263,0.091,551
2019-12-31T14:53:36,42.805,6.029,CST-1368DR,7051,9877,15263,0.091,551
2019-12-31T14:56:38,42.805,6.029,CST-1368DR,7051,9877,15262,0.092,551
2019-12-31T14:59:40,42.805,6.029,CST-1368DR,7051,9877,15262,0.092,551
2019-12-31T15:02:41,42.805,6.029,CST-1368DR,7051,9879,15265,0.091,551
2019-12-31T15:05:43,42.805,6.029,CST-1368DR,7051,9878,15265,0.091,551
2019-12-31T15:08:45,42.805,6.029,CST-1368DR,7051,9879,15266,0.091,551
2019-12-31T15:11:46,42.805,6.029,CST-1368DR,7051,9879,15267,0.090,551
2019-12-31T15:14:48,42.805,6.029,CST-1368DR,7051,9880,15267,0.090,551
2019-12-31T15:17:49,42.805,6.029,CST-1368DR,7051,9879,15267,0.090,551
2019-12-31T15:20:51,42.805,6.029,CST-1368DR,7051,9879,15265,0.091,551
2019-12-31T15:23:53,42.805,6.029,CST-1368DR,7051,9880,15267,0.090,551
2019-12-31T15:26:54,42.805,6.029,CST-1368DR,7051,9878,15265,0.091,550
2019-12-31T15:29:56,42.805,6.029,CST-1368DR,7051,9879,15266,0.091,551
2019-12-31T15:32:58,42.805,6.029,CST-1368DR,7051,9878,15265,0.091,551
2019-12-31T15:35:59,42.805,6.029,CST-1368DR,7051,9880,15267,0.090,551
2019-12-31T15:39:01,42.805,6.029,CST-1368DR,7051,9880,15267,0.090,551
2019-12-31T15:42:03,42.805,6.029,CST-1368DR,7051,9880,15268,0.090,551
2019-12-31T15:45:04,42.805,6.029,CST-1368DR,7051,9879,15266,0.091,551
2019-12-31T15:48:06,42.805,6.029,CST-1368DR,7051,9880,15267,0.090,551
2019-12-31T15:51:08,42.805,6.029,CST-1368DR,7051,9880,15267,0.090,551
2019-12-31T15:54:10,42.805,6.029,CST-1368DR,7051,9879,15267,0.090,551
2019-12-31T15:57:12,42.805,6.029,CST-1368DR,7051,9879,15266,0.091,551
2019-12-31T16:00:13,42.805,6.029,CST-1368DR,7051,9880,15268,0.090,551
2019-12-31T16:03:15,42.805,6.029,CST-1368DR,7051,9880,15268,0.090,551
2019-12-31T16:06:17,42.805,6.029,CST-1368DR,7051,9880,15268,0.090,551
2019-12-31T16:09:18,42.805,6.029,CST-1368DR,7051,9879,15266,0.091,551
2019-12-31T16:12:20,42.805,6.029,CST-1368DR,7051,9880,15267,0.090,550
2019-12-31T16:15:22,42.805,6.029,CST-1368DR,7051,9879,15265,0.091,551
2019-12-31T16:18:23,42.805,6.029,CST-1368DR,7051,9880,15268,0.090,551
2019-12-31T16:21:25,42.805,6.029,CST-1368DR,7051,9881,15269,0.090,551
2019-12-31T16:24:27,42.805,6.029,CST-1368DR,7051,9882,15270,0.090,551
2019-12-31T16:27:28,42.805,6.029,CST-1368DR,7051,9881,15269,0.090,551
2019-12-31T16:30:30,42.805,6.029,CST-1368DR,7051,9880,15268,0.090,551
2019-12-31T16:33:32,42.805,6.029,CST-1368DR,7050,9879,15269,0.090,551
2019-12-31T16:36:33,42.805,6.029,CST-1368DR,7051,9880,15268,0.090,551
2019-12-31T16:39:35,42.805,6.029,CST-1368DR,7051,9880,15268,0.090,551
2019-12-31T16:42:37,42.805,6.029,CST-1368DR,7051,9880,15268,0.090,551
2019-12-31T16:45:38,42.805,6.029,CST-1368DR,7050,9878,15267,0.090,551
2019-12-31T16:48:40,42.805,6.029,CST-1368DR,7050,9882,15273,0.089,551
2019-12-31T16:51:42,42.805,6.029,CST-1368DR,7050,9878,15267,0.090,551